Location: San Antonio
(29.4240°N, 98.4930°W)
Time: 18:16:34
(UTC-05:00)

Courier 1B - Visible Passes

Search period start: 08 July 2025 00:00
Search period end: 18 July 2025 00:00
Orbit: 962 x 1208 km, 28.3° (Epoch: 08 July)

Date Brightness Start Highest point End Pass type
(mag) Time Alt. Az. Time Alt. Az. Time Alt. Az.
08 Jul 9.4 22:35:29 10° WSW 22:39:56 17° SSW 22:41:39 16° SSW visible
09 Jul 9.2 21:40:25 10° W 21:46:10 24° SSW 21:51:06 12° SSE visible
11 Jul 9.7 21:48:35 10° WSW 21:52:01 14° SSW 21:55:22 10° S visible
12 Jul 9.6 20:53:00 10° WSW 20:58:12 20° SSW 21:03:15 10° SSE visible
14 Jul 10.1 21:03:03 10° SW 21:04:02 10° SW 21:05:01 10° SSW visible
